JI1PZF-13 Weather Reports


time (UTC)temp
F
wind
direction
speed
knots
gust
knots
rain 1hr
in
rain 24hr
in
rain mn
in
humidity
%
barometer
mb
20260509211832 62 342 0.0 0.9 0.00 0.00 0.00 41 1022.5
20260509210337 62 278 0.0 0.9 0.00 0.00 0.00 41 1022.3
20260509204844 62 313 0.0 0.9 0.00 0.00 0.00 41 1022.2
20260509203324 61 292 0.0 0.0 0.00 0.00 0.00 41 1022.1
20260509201829 62 333 0.0 0.0 0.00 0.00 0.00 41 1021.9
20260509200350 62 340 0.0 0.0 0.00 0.00 0.00 41 1021.7
20260509194835 62 280 0.0 0.9 0.00 0.00 0.00 40 1021.5
20260509193340 62 351 0.0 0.9 0.00 0.00 0.00 40 1021.1
20260509191845 62 280 0.0 0.0 0.00 0.00 0.00 40 1020.9
20260509190332 62 331 0.0 0.0 0.00 0.00 0.00 39 1020.7
20260509184902 62 303 0.0 0.0 0.00 0.00 0.00 40 1020.6
20260509183324 62 311 0.0 0.0 0.00 0.00 0.00 40 1020.5
20260509181831 63 317 0.0 0.0 0.00 0.00 0.00 39 1020.3
20260509180339 63 5 0.0 0.0 0.00 0.00 0.00 39 1020.3
20260509174824 63 328 0.0 0.0 0.00 0.00 0.00 39 1020.1
20260509173329 63 304 0.0 0.0 0.00 0.00 0.00 40 1019.9
20260509171841 63 316 0.0 0.0 0.00 0.00 0.00 40 1019.8
20260509170324 63 317 0.0 0.0 0.00 0.00 0.00 40 1019.8
20260509164855 63 310 0.0 0.0 0.00 0.00 0.00 40 1019.8
20260509163340 63 63 0.0 0.9 0.00 0.00 0.00 40 1019.8
20260509161824 63 277 0.0 0.9 0.00 0.00 0.00 39 1019.7
20260509160353 64 306 0.0 0.0 0.00 0.00 0.00 39 1019.5
20260509154901 64 267 0.0 0.0 0.00 0.00 0.00 39 1019.5
20260509153323 64 282 0.0 0.0 0.00 0.00 0.00 37 1019.5
20260509151828 64 302 0.0 1.7 0.00 0.00 0.00 37 1019.5
20260509144835 65 304 0.0 0.9 0.00 0.00 0.00 36 1019.5
20260509143338 65 296 0.0 1.7 0.00 0.00 0.00 35 1019.4
20260509141828 66 306 0.0 0.9 0.00 0.00 0.00 34 1019.1
20260509140334 66 285 0.0 0.9 0.00 0.00 0.00 32 1019.0
20260509134842 67 286 0.0 2.6 0.00 0.00 0.00 31 1018.8
20260509133326 67 283 0.0 0.0 0.00 0.00 0.00 30 1018.8
20260509131830 67 306 0.0 0.0 0.00 0.00 0.00 29 1018.7
20260509130341 68 277 0.0 1.7 0.00 0.00 0.00 29 1018.5
20260509124825 68 307 0.0 0.0 0.00 0.00 0.00 28 1018.3
20260509123333 68 284 0.0 0.0 0.00 0.00 0.00 27 1018.1
20260509121842 68 284 0.0 0.0 0.00 0.00 0.00 27 1018.2
20260509120329 68 284 0.0 0.0 0.00 0.00 0.00 27 1018.0
20260509114835 69 288 0.0 0.0 0.00 0.00 0.00 26 1018.0
20260509113339 69 36 0.0 0.9 0.00 0.00 0.00 26 1017.8
20260509111848 69 335 0.0 0.0 0.00 0.00 0.00 26 1017.6
20260509110331 69 339 0.0 0.0 0.00 0.00 0.00 26 1017.4
20260509104839 69 277 0.0 0.9 0.00 0.00 0.00 26 1017.3
20260509103345 70 292 0.0 0.9 0.00 0.00 0.00 26 1016.9
20260509101823 70 294 0.0 0.0 0.00 0.00 0.00 26 1016.5
20260509100352 70 324 0.0 5.2 0.00 0.00 0.00 26 1016.3
20260509094839 71 289 0.0 0.9 0.00 0.00 0.00 25 1016.2
20260509093325 71 178 0.0 0.0 0.00 0.00 0.00 26 1015.9
20260509091844 72 309 0.0 0.9 0.00 0.00 0.00 25 1015.5
20260509090329 72 271 0.0 1.7 0.00 0.00 0.00 25 1015.2
20260509084841 73 82 0.0 7.0 0.00 0.00 0.00 24 1015.1
20260509083345 74 290 0.0 0.9 0.00 0.00 0.00 24 1014.8
20260509081828 74 235 0.0 0.0 0.00 0.00 0.00 24 1014.7
20260509080336 74 69 0.0 0.9 0.00 0.00 0.00 25 1014.4
20260509074825 74 306 0.0 1.7 0.00 0.00 0.00 25 1014.1
20260509073349 75 329 0.0 13.0 0.00 0.00 0.00 25 1013.8
20260509071831 75 308 0.0 0.9 0.00 0.00 0.00 25 1013.5
20260509070337 75 313 0.0 1.7 0.00 0.00 0.00 26 1013.4
20260509064825 75 304 0.0 1.7 0.00 0.00 0.00 26 1013.0
20260509063331 75 325 0.0 0.9 0.00 0.00 0.00 26 1013.0
20260509061831 75 216 0.0 1.7 0.00 0.00 0.00 27 1013.0
20260509060339 75 309 0.0 10.4 0.00 0.00 0.00 27 1012.9
20260509054824 75 341 0.0 0.9 0.00 0.00 0.00 28 1012.8
20260509053331 74 298 0.0 3.5 0.00 0.00 0.00 28 1012.7
20260509051838 74 282 0.0 0.9 0.00 0.00 0.00 29 1012.8
20260509050343 74 55 0.0 8.7 0.00 0.00 0.00 30 1012.6
20260509044825 74 350 0.0 1.7 0.00 0.00 0.00 30 1012.9
20260509043330 73 261 0.0 4.3 0.00 0.00 0.00 31 1012.7
20260509041832 73 73 2.6 16.5 0.00 0.00 0.00 31 1012.8
20260509040339 73 22 0.9 13.0 0.00 0.00 0.00 31 1013.0
20260509034822 73 14 0.0 1.7 0.00 0.00 0.00 32 1013.0
20260509033328 72 332 0.9 12.2 0.00 0.00 0.00 33 1013.2
20260509031853 72 337 0.0 1.7 0.00 0.00 0.00 31 1013.1
20260509030337 72 350 0.9 11.3 0.00 0.00 0.00 32 1012.9
20260509024827 71 322 0.9 17.4 0.00 0.00 0.00 33 1013.0
20260509023336 72 280 0.9 16.5 0.00 0.00 0.00 34 1013.0
20260509021843 72 290 0.0 7.8 0.00 0.00 0.00 33 1012.8
20260509020330 71 235 0.0 24.3 0.00 0.00 0.00 34 1013.0
20260509014843 71 326 0.0 9.6 0.00 0.00 0.00 36 1012.8
20260509013333 70 262 0.0 12.2 0.00 0.00 0.00 36 1013.0
20260509011837 70 340 0.9 16.5 0.00 0.00 0.00 37 1013.0
20260509010344 70 265 0.0 13.9 0.00 0.00 0.00 36 1012.5
20260509004826 70 227 0.9 14.8 0.00 0.00 0.00 35 1012.2
20260509003334 70 266 0.0 5.2 0.00 0.00 0.00 33 1012.0
20260509001842 70 302 0.0 0.9 0.00 0.00 0.00 32 1011.6
20260509000325 70 292 0.0 0.9 0.00 0.00 0.00 31 1011.8
20260508234834 70 279 0.0 7.8 0.00 0.00 0.00 30 1011.7
20260508233342 70 317 0.0 0.0 0.00 0.00 0.00 30 1011.6
20260508231828 70 278 0.0 0.9 0.00 0.00 0.00 29 1011.2
20260508230332 69 333 0.0 0.0 0.00 0.00 0.00 29 1010.9
20260508224839 69 344 0.0 0.9 0.00 0.00 0.00 29 1010.8
20260508223344 68 270 0.0 0.9 0.00 0.00 0.00 30 1010.7
20260508221824 67 273 0.0 0.0 0.00 0.00 0.00 31 1010.4
20260508220328 65 277 0.0 0.0 0.00 0.00 0.00 32 1010.1
20260508214836 65 282 0.0 0.0 0.00 0.00 0.00 32 1009.9
20260508213341 65 280 0.0 0.0 0.00 0.00 0.00 32 1009.6